sat.trackr.live / text

‹ back to catalog

STARLINK-32446

NORAD 61262 · 2024-175V

PAYLOAD ACTIVE UNKNOWN

§ Identity

Operator
Country
US
Launch date
2024-09-25
Launch site
AFWTR
Launch vehicle
Mass (kg)
RCS (m²)

Purposes: comms

External: N2YO · Heavens-Above · Gunter

§ Orbital elements

Epoch: 2026-09-21T13:11:07.489536Z

Period
93.85 min
Inclination
53.1627°
Eccentricity
0.0001169
Mean motion
15.34382093 rev/d
Perigee alt
462.0 km
Apogee alt
463.6 km
Semi-major
6,840.9 km
B*
5.3878e-5
RAAN
0.5336°
Arg perigee
73.8410°
Mean anomaly
286.2721°
Rev number
11,149

§ Raw data

STARLINK-324461 61262U 24175V   26264.54939224  .00001444  00000+0  53878-4 0  99912 61262  53.1627   0.5336 0001169  73.8410 286.2721 15.34382093111492

JSON: /api/v1/satellites/61262 · /tle

For live sub-satellite position, see the globe view (requires WebGL).

§ Visibility from observer

Set your observer location to see the next 7 days of passes ≥ 10°. The values pass through the URL so the page stays shareable.

No JS? Fill the form by hand. The geolocation button needs JavaScript.